sat.trackr.live / text

‹ back to catalog

STARLINK-3946

NORAD 52693 · 2022-053AP

PAYLOAD ACTIVE UNKNOWN

§ Identity

Operator
Country
US
Launch date
2022-05-18
Launch site
AFETR
Launch vehicle
Mass (kg)
RCS (m²)

Purposes: comms

External: N2YO · Heavens-Above · Gunter

§ Orbital elements

Epoch: 2026-05-25T00:16:55.136928Z

Period
95.44 min
Inclination
53.2126°
Eccentricity
0.0000758
Mean motion
15.08836441 rev/d
Perigee alt
539.2 km
Apogee alt
540.3 km
Semi-major
6,917.9 km
B*
-2.2043e-5
RAAN
161.4974°
Arg perigee
45.5243°
Mean anomaly
314.5811°
Rev number
22,267

§ Raw data

STARLINK-39461 52693U 22053AP  26145.01174927 -.00000638  00000+0 -22043-4 0  99992 52693  53.2126 161.4974 0000758  45.5243 314.5811 15.08836441222673

JSON: /api/v1/satellites/52693 · /tle

For live sub-satellite position, see the globe view (requires WebGL).

§ Visibility from observer

Set your observer location to see the next 7 days of passes ≥ 10°. The values pass through the URL so the page stays shareable.

No JS? Fill the form by hand. The geolocation button needs JavaScript.